Regional Weather Roundup
Issued by NWS Sioux Falls, SD

Home | Current Version | Previous Version | Graphics & Text | Print | Product List | Glossary On
Versions: 1 2 3 4 5 6 7 8 9 10 11 12 13 14 15 16 17 18 19 20 21 22 23 24 25 26 27 28 29 30 31 32 33 34 35 36 37 38 39 40 41 42 43 44 45 46 47 48 49 50
000
ASUS43 KFSD 040002
RWRFSD

WEATHER ROUNDUP FOR SE SOUTH DAKOTA/SW MINNESOTA/NW IOWA
NATIONAL WEATHER SERVICE SIOUX FALLS SD
600 PM CST SAT DEC 03 2016

NOTE: "FAIR" INDICATES FEW OR NO CLOUDS BELOW 12,000 FEET WITH NO
SIGNIFICANT WEATHER AND OR OBSTRUCTIONS TO VISIBILITY.


SDZ038>040-050-052>070-040100-
SOUTHEAST SOUTH DAKOTA

CITY           SKY/WX    TMP DP  RH WIND       PRES   REMARKS
CHAMBERLAIN    CLOUDY    37  32  82 S3        29.92S
6HR MIN TEMP:  36; 6HR MAX TEMP:  40;

HURON          CLEAR     33  32  96 S16G24    29.96F WCI  23
6HR MIN TEMP:  32; 6HR MAX TEMP:  36; 6HR PCP:  0.01;

MADISON        CLOUDY    32  32 100 S17       30.03F WCI  21
MITCHELL       MOCLDY    35  34  96 S16       29.99F WCI  25
6HR MIN TEMP:  33; 6HR MAX TEMP:  37; 6HR PCP:  0.03;

SIOUX FALLS    LGT RAIN  35  34  96 S13G22    30.07F WCI  26
6HR MIN TEMP:  34; 6HR MAX TEMP:  36; 6HR PCP: TRACE;

WINNER         FAIR      36  23  59 W5        29.92R
YANKTON        CLOUDY    36  30  80 SE16      30.06F
$$

MNZ071-072-080-081-089-090-097-098-040100-
SOUTHWEST MINNESOTA

CITY           SKY/WX    TMP DP  RH WIND       PRES   REMARKS
FAIRMONT       MIX PCPN  34  33  96 S14       30.17F WCI  25
JACKSON        LGT SNOW  32  32 100 S12       30.15S WCI  23
LUVERNE        LGT SNOW  32  32 100 S10       30.10F WCI  24
MARSHALL       CLOUDY    35  31  85 S15       30.09F WCI  25
6HR MIN TEMP:  33; 6HR MAX TEMP:  37;

MONTEVIDEO     LGT RAIN  34  34 100 S8        30.12F WCI  27
PIPESTONE      LGT SNOW  34  32  93 S15       30.06F WCI  24
REDWOOD FALLS  LGT SNOW  33  30  88 SE12      30.14F FOG     WCI  24
TRACY          FLURRIES  35  32  90 S12G17    30.11S WCI  26
WINDOM         LGT SNOW  36  34  93 CALM      30.13F
WORTHINGTON    LGT SNOW  33  31  92 S14       30.11F FOG     WCI  23
$$

IAZ001>003-012>014-020>022-031-032-NEZ013-014-SDZ071-040100-
NORTHWEST IOWA

CITY           SKY/WX    TMP DP  RH WIND       PRES   REMARKS
CHEROKEE       LGT SNOW  32  32 100 S6        30.14F WCI  27
DENISON        LGT SNOW  34  34 100 SE8       30.12F WCI  27
ESTHERVILLE    LGT SNOW  32  32 100 S12       30.15F FOG     WCI  23
LE MARS        CLOUDY    34  32  93 SE10      30.13F FOG     WCI  26
ORANGE CITY    LGT SNOW  34  34 100 CALM      30.11F
SHELDON        CLOUDY    32  32 100 S10       30.11F FOG     WCI  24
SIOUX CITY     LGT SNOW  34  33  96 SE8       30.13F FOG     WCI  27
6HR MIN TEMP:  34; 6HR MAX TEMP:  37; 6HR PCP:  0.05;

SPENCER        LGT SNOW  33  32  96 S15       30.14F FOG     WCI  23
6HR MIN TEMP:  33; 6HR MAX TEMP:  38; 6HR PCP:  0.01;

STORM LAKE     LGT SNOW  32  32 100 SE12      30.14F WCI  23
$$

ABBREVIATIONS USED IN REMARKS
   TC - TEMPERATURE IN CELSIUS
  WCI - WIND CHILL INDEX
   HX - HEAT INDEX
  VSB - VISIBILITY





USA.gov is the U.S. government's official web portal to all federal, state and local government web resources and services.